Location: Banios
(43.0451°N, 0.2335°E)
Time: 08:17:18
(UTC+00:00)

MOS 1 Rocket - Visible Passes

Search period start: 11 May 2021 00:00
Search period end: 21 May 2021 00:00
Orbit: 614 x 830 km, 97.4° (Epoch: 10 May)

Date Brightness Start Highest point End Pass type
(mag) Time Alt. Az. Time Alt. Az. Time Alt. Az.
11 May 5.4 03:56:09 10° SE 04:00:49 36° ENE 04:05:17 10° N visible
12 May 6.7 03:09:33 10° E 03:11:58 14° ENE 03:14:20 10° NNE visible
13 May 5.3 03:55:50 10° SE 04:00:27 36° ENE 04:04:52 10° N visible
14 May 6.6 03:09:16 10° E 03:11:36 13° ENE 03:13:53 10° NNE visible
15 May 5.3 03:55:31 10° SE 04:00:05 35° ENE 04:04:27 10° N visible
16 May 6.6 03:08:57 10° E 03:11:14 13° ENE 03:13:26 10° NE visible
17 May 5.3 03:55:12 10° SE 03:59:43 35° ENE 04:04:01 10° N visible
18 May 6.6 03:08:39 10° E 03:10:50 13° ENE 03:12:59 10° NE visible
19 May 5.3 03:54:53 10° SE 03:59:21 35° ENE 04:03:35 10° N visible
20 May 6.6 03:08:20 10° E 03:10:27 13° ENE 03:12:32 10° NE visible
